GLD1121 SCPQ-SAZS

Flight info

Callsign GLD1121
Flight time N/A
Altitude 20000
Route ANPI2L ANPIP V121 MON UM658 TONAR DCT
Aircraft B350/M-SDFGIRY/S

Departure

Time 2026-05-08 21:48
Airport Mocopulli Airport (SCPQ)

Arrival

Time N/A
Airport Teniente Luis Candelaria International Airport (SAZS)
Time Latitude Longitude Altitude Speed Heading
2026-05-08 21:42 -42.34883 -73.72097 535 ft 0 kts 217°
2026-05-08 21:43 -42.34894 -73.72088 538 ft 11 kts 114°
2026-05-08 21:44 -42.34788 -73.72011 533 ft 28 kts
2026-05-08 21:44 -42.34627 -73.71894 529 ft 26 kts 53°
2026-05-08 21:44 -42.34497 -73.71689 527 ft 31 kts 40°
2026-05-08 21:44 -42.34282 -73.71597 523 ft 35 kts
2026-05-08 21:45 -42.34025 -73.71552 519 ft 39 kts
2026-05-08 21:45 -42.33748 -73.71528 516 ft 41 kts 360°
2026-05-08 21:45 -42.33466 -73.71499 510 ft 38 kts
2026-05-08 21:45 -42.33216 -73.71502 502 ft 24 kts 335°
2026-05-08 21:46 -42.33163 -73.71497 502 ft 5 kts 118°
2026-05-08 21:46 -42.33190 -73.71484 502 ft 0 kts 175°
2026-05-08 21:47 -42.33209 -73.71481 501 ft 27 kts 172°
2026-05-08 21:47 -42.33751 -73.71533 526 ft 118 kts 185°
2026-05-08 21:47 -42.34741 -73.71631 652 ft 162 kts 185°
2026-05-08 21:48 -42.35796 -73.71569 1524 ft 151 kts 154°
2026-05-08 21:48 -42.36292 -73.70416 2444 ft 152 kts 90°
2026-05-08 21:48 -42.35686 -73.69288 3330 ft 160 kts 28°
2026-05-08 21:48 -42.34574 -73.69294 4207 ft 162 kts 359°
2026-05-08 21:49 -42.33481 -73.69347 5037 ft 154 kts 14°
2026-05-08 21:49 -42.32430 -73.69077 5749 ft 156 kts 22°
2026-05-08 21:49 -42.31364 -73.68630 6376 ft 164 kts 26°
2026-05-08 21:49 -42.30302 -73.67988 6991 ft 170 kts 34°
2026-05-08 21:50 -42.29234 -73.67252 7648 ft 175 kts 32°
2026-05-08 21:50 -42.28120 -73.66546 8305 ft 179 kts 30°
2026-05-08 21:50 -42.26977 -73.65830 8990 ft 183 kts 31°
2026-05-08 21:50 -42.25813 -73.65074 9648 ft 188 kts 32°
2026-05-08 21:51 -42.24608 -73.64313 10289 ft 194 kts 31°
2026-05-08 21:51 -42.23379 -73.63517 10886 ft 198 kts 34°
2026-05-08 21:51 -42.22135 -73.62669 11489 ft 203 kts 34°
2026-05-08 21:51 -42.20854 -73.61817 12080 ft 208 kts 34°
2026-05-08 21:52 -42.19537 -73.60955 12682 ft 213 kts 34°
2026-05-08 21:52 -42.18198 -73.60065 13291 ft 217 kts 35°
2026-05-08 21:52 -42.16822 -73.59151 13877 ft 224 kts 36°
2026-05-08 21:52 -42.15382 -73.58184 14154 ft 245 kts 35°
2026-05-08 21:53 -42.13779 -73.57129 14275 ft 267 kts 34°
2026-05-08 21:53 -42.12045 -73.55996 14327 ft 285 kts 33°
2026-05-08 21:53 -42.10207 -73.54841 14354 ft 297 kts 33°
2026-05-08 21:53 -42.08358 -73.53535 14368 ft 304 kts 35°
2026-05-08 21:54 -42.06444 -73.52231 14372 ft 311 kts 33°
2026-05-08 21:54 -42.04502 -73.50907 14377 ft 315 kts 34°
2026-05-08 21:54 -42.02541 -73.49555 14373 ft 318 kts 34°
2026-05-08 21:54 -42.00565 -73.48211 14379 ft 319 kts 34°
2026-05-08 21:55 -41.98584 -73.46853 14379 ft 320 kts 34°
2026-05-08 21:55 -41.96596 -73.45497 14378 ft 321 kts 34°
2026-05-08 21:55 -41.94606 -73.44139 14380 ft 321 kts 34°
2026-05-08 21:56 -41.91294 -73.41881 14379 ft 321 kts 34°
2026-05-08 21:56 -41.89300 -73.40523 14380 ft 321 kts 34°
2026-05-08 21:56 -41.87308 -73.39167 14378 ft 321 kts 34°
2026-05-08 21:56 -41.85317 -73.37812 14380 ft 321 kts 34°
2026-05-08 21:57 -41.83325 -73.36458 14376 ft 321 kts 34°
2026-05-08 21:57 -41.81337 -73.35108 14377 ft 320 kts 34°
2026-05-08 21:57 -41.79349 -73.33759 14374 ft 320 kts 34°
2026-05-08 21:57 -41.77361 -73.32409 14378 ft 320 kts 34°
2026-05-08 21:58 -41.75377 -73.31065 14376 ft 320 kts 34°
2026-05-08 21:58 -41.73390 -73.29719 14373 ft 320 kts 34°
2026-05-08 21:58 -41.71405 -73.28377 14364 ft 320 kts 34°
2026-05-08 21:58 -41.69424 -73.27035 14355 ft 319 kts 34°
2026-05-08 21:59 -41.67440 -73.25695 14352 ft 319 kts 34°
2026-05-08 21:59 -41.65464 -73.24359 14345 ft 318 kts 34°
2026-05-08 21:59 -41.63486 -73.23025 14345 ft 318 kts 34°
2026-05-08 21:59 -41.61511 -73.21692 14337 ft 318 kts 34°
2026-05-08 22:00 -41.59540 -73.20364 14335 ft 317 kts 34°
2026-05-08 22:00 -41.57582 -73.19045 14327 ft 317 kts 34°
2026-05-08 22:00 -41.55618 -73.17727 14325 ft 316 kts 33°
2026-05-08 22:00 -41.53653 -73.16406 14329 ft 315 kts 34°
2026-05-08 22:01 -41.51696 -73.15075 14321 ft 316 kts 34°
2026-05-08 22:01 -41.49734 -73.13766 14324 ft 315 kts 34°
2026-05-08 22:01 -41.47777 -73.12447 14329 ft 315 kts 34°
2026-05-08 22:01 -41.45881 -73.11031 14329 ft 306 kts 46°
2026-05-08 22:02 -41.44359 -73.09122 14327 ft 294 kts 62°
2026-05-08 22:02 -41.43356 -73.06828 14327 ft 282 kts 76°
2026-05-08 22:02 -41.42647 -73.04418 14325 ft 278 kts 81°
2026-05-08 22:02 -41.42067 -73.02003 14319 ft 276 kts 83°
2026-05-08 22:03 -41.41540 -72.99552 14324 ft 273 kts 87°
2026-05-08 22:03 -41.41224 -72.97081 14319 ft 270 kts 91°
2026-05-08 22:03 -41.40871 -72.94614 14323 ft 272 kts 88°
2026-05-08 22:03 -41.40513 -72.92147 14324 ft 271 kts 90°
2026-05-08 22:04 -41.40176 -72.89685 14325 ft 272 kts 89°
2026-05-08 22:04 -41.39892 -72.87741 14326 ft 272 kts 88°
2026-05-08 22:04 -41.39565 -72.85433 14331 ft 272 kts 89°
2026-05-08 22:04 -41.39214 -72.82953 14332 ft 273 kts 88°
2026-05-08 22:05 -41.38857 -72.80465 14332 ft 274 kts 88°
2026-05-08 22:05 -41.38502 -72.77976 14326 ft 274 kts 88°
2026-05-08 22:05 -41.38146 -72.75480 14326 ft 274 kts 88°
2026-05-08 22:05 -41.37788 -72.72991 14334 ft 274 kts 88°
2026-05-08 22:06 -41.37430 -72.70493 14332 ft 275 kts 88°
2026-05-08 22:06 -41.37072 -72.67996 14332 ft 275 kts 88°
2026-05-08 22:06 -41.36710 -72.65497 14334 ft 275 kts 88°
2026-05-08 22:06 -41.36353 -72.62994 14339 ft 276 kts 88°
2026-05-08 22:07 -41.35988 -72.60481 14336 ft 276 kts 87°
2026-05-08 22:07 -41.35678 -72.57964 14344 ft 273 kts 94°
2026-05-08 22:07 -41.35610 -72.55448 14339 ft 272 kts 97°
2026-05-08 22:07 -41.35532 -72.52922 14304 ft 275 kts 92°
2026-05-08 22:08 -41.35351 -72.50398 14327 ft 272 kts 94°
2026-05-08 22:08 -41.35233 -72.47882 14333 ft 274 kts 94°
2026-05-08 22:08 -41.35082 -72.45355 14318 ft 274 kts 93°
2026-05-08 22:08 -41.34934 -72.42835 14328 ft 272 kts 93°
2026-05-08 22:09 -41.34801 -72.40318 14348 ft 274 kts 93°
2026-05-08 22:09 -41.34643 -72.37790 14344 ft 274 kts 94°
2026-05-08 22:09 -41.34506 -72.35252 14347 ft 276 kts 94°
2026-05-08 22:09 -41.34356 -72.32700 14330 ft 277 kts 93°
2026-05-08 22:10 -41.34208 -72.30143 14333 ft 277 kts 93°
2026-05-08 22:10 -41.34059 -72.27581 14335 ft 278 kts 93°
2026-05-08 22:10 -41.33912 -72.25052 14332 ft 278 kts 93°
2026-05-08 22:10 -41.33847 -72.22500 14334 ft 270 kts 106°
2026-05-08 22:11 -41.34635 -72.20402 14330 ft 249 kts 142°
2026-05-08 22:11 -41.36154 -72.19499 14343 ft 241 kts 172°
2026-05-08 22:11 -41.37821 -72.19199 14335 ft 242 kts 174°
2026-05-08 22:11 -41.39494 -72.18960 14365 ft 242 kts 175°
2026-05-08 22:12 -41.41171 -72.18748 14370 ft 242 kts 175°
2026-05-08 22:12 -41.42834 -72.18394 14377 ft 245 kts 160°
2026-05-08 22:12 -41.44095 -72.16847 14350 ft 260 kts 123°
2026-05-08 22:12 -41.44392 -72.14416 14331 ft 279 kts 88°
2026-05-08 22:13 -41.43555 -72.12022 14349 ft 297 kts 54°
2026-05-08 22:13 -41.42042 -72.10121 14307 ft 299 kts 45°
2026-05-08 22:13 -41.40509 -72.08269 14295 ft 295 kts 52°
2026-05-08 22:13 -41.39251 -72.06127 14351 ft 293 kts 62°
2026-05-08 22:14 -41.38211 -72.03813 14356 ft 290 kts 70°
2026-05-08 22:14 -41.37400 -72.01358 14360 ft 290 kts 72°
2026-05-08 22:14 -41.36560 -71.98905 14331 ft 291 kts 72°
2026-05-08 22:14 -41.35726 -71.96451 14355 ft 290 kts 75°
2026-05-08 22:15 -41.35066 -71.93922 14352 ft 289 kts 78°
2026-05-08 22:15 -41.34367 -71.91402 14359 ft 291 kts 75°
2026-05-08 22:15 -41.33678 -71.88881 14344 ft 291 kts 75°
2026-05-08 22:15 -41.32472 -71.86672 14351 ft 306 kts 42°
2026-05-08 22:16 -41.30676 -71.85133 14358 ft 306 kts 42°
2026-05-08 22:16 -41.29014 -71.83376 14357 ft 310 kts 31°
2026-05-08 22:16 -41.26943 -71.82535 14346 ft 313 kts 13°